Location: Unspecified
(0.0000°N, 0.0000°E)
Time: 18:51:59
(UTC+00:00)

Vanguard 1 Rocket - Pass Details

Date: 27 November 2019
Orbit: 650 x 4226 km, 34.3° (Epoch: 05 December)

Event Time Altitude Azimuth Distance (km) Brightness Sun altitude
Rises 11:42:12 0° 268° (W) 5,126 11.2 68.8°
Reaches altitude 10° 11:45:38 10° 257° (WSW) 4,570 11.2 68.9°
Maximum altitude 11:57:23 31° 199° (SSW) 4,374 11.8 68.7°
Drops below altitude 10° 12:16:13 10° 145° (SE) 7,190 12.3 67.7°
Sets 12:23:59 0° 135° (SE) 8,441 12.4 67.1°
